Location: Prairie State College
(41.5244°N, 87.6382°W)
Time: 14:58:45
(UTC-05:00)

Cosmos 1140 Rocket - Visible Passes

Search period start: 05 May 2016 00:00
Search period end: 15 May 2016 00:00
Orbit: 744 x 768 km, 74.1° (Epoch: 04 May)

Date Brightness Start Highest point End Pass type
(mag) Time Alt. Az. Time Alt. Az. Time Alt. Az.
05 May 5.9 02:07:25 11° ESE 02:08:43 12° E 02:10:50 10° ENE visible
05 May 3.4 03:47:27 34° SSW 03:49:46 76° WNW 03:55:03 10° NNE visible
06 May 3.8 03:07:51 43° SSE 03:09:19 59° ESE 03:14:29 10° NNE visible
06 May 5.2 04:47:53 10° W 04:51:32 19° WNW 04:55:16 10° N visible
07 May 4.7 02:28:14 30° ESE 02:29:00 31° E 02:33:36 10° NE visible
07 May 4.5 04:08:15 22° WSW 04:10:44 32° WNW 04:15:27 10° N visible
08 May 5.5 01:48:34 17° E 01:48:49 17° E 01:52:09 10° NE visible
08 May 3.7 03:28:35 42° WSW 03:30:05 57° WNW 03:35:17 10° NNE visible
09 May 3.4 02:48:53 66° S 02:49:34 79° ESE 02:54:51 10° NNE visible
09 May 5.5 04:29:06 10° W 04:32:03 15° NW 04:34:59 10° NNW visible
10 May 4.2 02:09:09 42° ESE 02:09:11 42° ESE 02:14:08 10° NNE visible
10 May 4.9 03:49:10 20° W 03:51:09 25° WNW 03:55:28 10° N visible
11 May 5.2 01:29:24 23° E 01:29:24 23° E 01:33:00 10° NE visible
11 May 4.1 03:09:25 39° W 03:10:26 43° WNW 03:15:27 10° N visible
12 May 5.9 00:49:37 12° E 00:49:37 12° E 00:50:48 10° ENE visible
12 May 3.4 02:29:38 76° WSW 02:29:51 78° WNW 02:35:08 10° NNE visible
12 May 5.7 04:10:53 10° WNW 04:12:35 11° NW 04:14:17 10° NNW visible
13 May 3.9 01:49:49 55° E 01:49:49 55° E 01:54:34 10° NNE visible
13 May 5.2 03:29:49 17° W 03:31:36 20° WNW 03:35:24 10° N visible
14 May 4.9 01:09:58 29° E 01:09:58 29° E 01:13:40 10° NE visible
14 May 4.5 02:49:59 31° W 02:50:48 33° WNW 02:55:33 10° N visible
